San Benito, TX

11:01 AM CDT on October 01, 2016 (GMT -0500)
Valley International

Weather History for KHRL - April, 2013

Change the Weather History Date:

Friday, April 12, 2013

  Actual Average Record
Temperature  
Mean Temperature 67 °F 75 °F  
Max Temperature 81 °F 85 °F 101 °F (1979)
Min Temperature 53 °F 64 °F 45 °F (1932)
Degree Days  
Heating Degree Days 0 0  
Month to date heating degree days 0 7  
Since 1 July heating degree days 391 621  
Cooling Degree Days 2 10  
Month to date cooling degree days 105 109  
Year to date cooling degree days 460 404  
Growing Degree Days 17 (Base 50)    
Moisture  
Dew Point 57 °F    
Average Humidity 69    
Maximum Humidity 93    
Minimum Humidity 45    
Precipitation  
Precipitation 0.00 in 0.07 in 1.28 in (2015)
Month to date precipitation T 0.66  
Year to date precipitation 2.80 4.42  
Sea Level Pressure  
Sea Level Pressure 29.89 in    
Wind  
Wind Speed 9 mph (East)    
Max Wind Speed 22 mph    
Max Gust Speed 29 mph    
Visibility 10 miles    
Events      
T = Trace of Precipitation, MM = Missing Value Source: NWS Daily Summary

Daily Weather History Graph

Daily Weather History Graph

Search for Another Location

Airport or City:

Trip Planner

Search our weather history database for the weather conditions in past years. The results will help you decide how hot, cold, wet, or windy it might be!

Date:

Astronomy

Apr. 12, 2013 Rise Set
Actual Time 7:09 AM CDT 7:52 PM CDT
Civil Twilight 6:46 AM CDT 8:16 PM CDT
Nautical Twilight 6:18 AM CDT 8:44 PM CDT
Astronomical Twilight 5:50 AM CDT 9:12 PM CDT
Moon 8:33 AM CDT (4/12) 10:10 PM CDT (4/12)
Length of Visible Light 13h 30m
Length of Day
12h 43m
Waxing Crescent, 5% of the Moon is Illuminated
Apr 12
Waxing Crescent
Apr 18
First Quarter
Apr 25
Full
May 2
Last Quarter
May 9
New

Hourly Weather History & Observations

Time (CDT) Temp. Heat Index Dew Point Humidity Pressure Visibility Wind Dir Wind Speed Gust Speed Precip Events Conditions
12:52 AM 55.9 °F - 52.0 °F 87% 29.89 in 10.0 mi Calm Calm - N/A   Clear
1:52 AM 55.0 °F - 51.1 °F 86% 29.88 in 10.0 mi Calm Calm - N/A   Clear
2:52 AM 54.0 °F - 50.0 °F 86% 29.87 in 10.0 mi Calm Calm - N/A   Clear
3:52 AM 55.0 °F - 51.1 °F 86% 29.88 in 10.0 mi Calm Calm - N/A   Clear
4:52 AM 53.1 °F - 50.0 °F 89% 29.88 in 10.0 mi Calm Calm - N/A   Clear
5:14 AM 53.6 °F - 50.0 °F 88% 29.88 in 10.0 mi Calm Calm - N/A   Mostly Cloudy
5:52 AM 55.0 °F - 52.0 °F 89% 29.88 in 10.0 mi Calm Calm - N/A   Overcast
6:52 AM 55.9 °F - 54.0 °F 93% 29.89 in 10.0 mi Calm Calm - N/A   Overcast
7:18 AM 55.4 °F - 53.6 °F 94% 29.89 in 10.0 mi Calm Calm - N/A   Partly Cloudy
7:52 AM 55.9 °F - 54.0 °F 93% 29.90 in 10.0 mi NE 4.6 mph - N/A   Clear
8:44 AM 64.4 °F - 60.8 °F 88% 29.92 in 10.0 mi ENE 4.6 mph - N/A   Mostly Cloudy
8:52 AM 64.9 °F - 60.1 °F 84% 29.92 in 10.0 mi ENE 5.8 mph - N/A   Mostly Cloudy
9:05 AM 66.2 °F - 60.8 °F 83% 29.92 in 10.0 mi ENE 6.9 mph - N/A   Partly Cloudy
9:52 AM 70.0 °F - 60.1 °F 71% 29.92 in 10.0 mi ENE 11.5 mph - N/A   Partly Cloudy
9:55 AM 69.8 °F - 60.8 °F 73% 29.92 in 10.0 mi East 9.2 mph - N/A   Scattered Clouds
10:52 AM 75.0 °F - 60.1 °F 60% 29.93 in 10.0 mi East 6.9 mph - N/A   Partly Cloudy
11:52 AM 78.1 °F - 57.9 °F 50% 29.93 in 10.0 mi East 12.7 mph - N/A   Partly Cloudy
12:52 PM 80.1 °F 80.6 °F 57.9 °F 47% 29.92 in 10.0 mi ESE 16.1 mph 20.7 mph N/A   Clear
1:52 PM 81.0 °F 81.1 °F 57.9 °F 45% 29.90 in 10.0 mi East 16.1 mph 23.0 mph N/A   Partly Cloudy
2:52 PM 80.1 °F 80.6 °F 57.9 °F 47% 29.88 in 10.0 mi East 16.1 mph 24.2 mph N/A   Clear
3:52 PM 80.6 °F 80.8 °F 57.2 °F 45% 29.86 in 10.0 mi ESE 15.0 mph 26.5 mph N/A   Clear
4:52 PM 78.1 °F - 57.9 °F 50% 29.85 in 10.0 mi ESE 15.0 mph 24.2 mph N/A   Partly Cloudy
5:52 PM 77.0 °F - 59.0 °F 54% 29.84 in 10.0 mi East 19.6 mph 25.3 mph N/A   Clear
6:52 PM 73.9 °F - 60.1 °F 62% 29.86 in 10.0 mi East 16.1 mph - N/A   Scattered Clouds
7:00 PM 73.4 °F - 60.8 °F 65% 29.85 in 10.0 mi ESE 16.1 mph - N/A   Mostly Cloudy
7:52 PM 72.0 °F - 60.1 °F 66% 29.87 in 10.0 mi East 17.3 mph - N/A   Mostly Cloudy
7:59 PM 71.6 °F - 60.8 °F 69% 29.87 in 10.0 mi ESE 16.1 mph - N/A   Mostly Cloudy
8:52 PM 70.0 °F - 61.0 °F 73% 29.88 in 10.0 mi ESE 11.5 mph - N/A   Partly Cloudy
9:52 PM 69.1 °F - 61.0 °F 75% 29.90 in 10.0 mi ESE 9.2 mph - N/A   Clear
10:52 PM 66.0 °F - 60.1 °F 81% 29.92 in 10.0 mi ESE 5.8 mph - N/A   Clear
11:52 PM 66.0 °F - 61.0 °F 84% 29.93 in 10.0 mi ESE 8.1 mph - N/A   Clear